Temperature
8 8 8 8 8 8 8 8 8 8 8 8 8 8 8 8 7 7 7 7 7 7 7 7 7 7 6 6 6 6 6 6 6 6 5 5 5 5
7 7 7 7 7 7 7 7 7 7 7 8 8 8 8 7 7 7 7 7 7 7 7 7 6 6 6 6 6 6 6 5 5 5 5 5 5 5
7 7 7 7 7 7 7 7 7 7 7 7 7 7 7 7 7 7 7 7 7 6 6 6 6 6 6 5 5 5 5 5 5 5 5 5 4 4
7 7 7 7 7 7 7 7 7 7 7 7 7 7 7 6 6 6 6 6 6 6 6 6 5 5 5 5 5 5 5 5 5 4 4 4 4 4
6 6 6 6 6 7 7 7 7 7 6 6 7 6 6 6 6 6 6 6 6 6 5 5 5 5 5 5 4 4 4 4 4 4 4 4 4 3
5 5 6 6 6 6 6 6 6 6 6 6 6 6 6 6 6 6 5 5 5 5 5 5 5 4 4 4 4 4 4 4 4 4 3 3 3 3
5 5 5 5 5 5 5 6 6 6 5 5 5 5 5 5 5 5 5 5 5 4 4 4 4 4 4 4 4 3 3 3 3 3 3 3 3 2
4 4 5 5 5 5 5 5 5 5 5 5 5 5 5 5 5 4 4 4 4 4 4 4 4 4 4 3 3 3 3 3 3 2 2 2 2 2
3 4 4 4 4 4 4 4 4 4 4 4 4 4 4 4 4 4 4 3 3 3 3 3 3 3 3 3 3 2 2 2 2 2 2 2 1 1
3 3 3 3 3 4 4 4 4 4 4 4 4 4 4 4 4 3 3 3 3 3 3 3 3 3 3 2 2 2 2 2 1 1 1 1 1 1
2 2 2 3 3 3 3 3 3 3 3 3 3 3 3 3 3 3 3 2 2 2 2 2 2 2 2 2 2 2 1 1 1 1 1 1 0 0
1 1 2 2 2 2 2 2 2 3 3 2 2 2 2 2 2 2 2 2 2 2 2 1 1 1 1 1 1 1 1 1 1 0 0 0 -0 -0
0 1 1 1 1 1 1 2 2 2 2 2 2 2 2 2 2 2 1 1 1 1 1 1 1 0 0 0 1 1 0 0 -0 -0 -0 -1 -1 -1
-0 -0 0 0 1 1 1 1 1 1 1 1 1 1 1 1 1 1 1 1 1 0 0 0 0 -0 -0 -0 -0 -0 -0 -1 -1 -1 -1 -1 -1 -2
-1 -1 -0 -0 -0 -0 0 0 0 0 0 1 1 1 1 1 0 0 0 0 -0 -0 -0 -1 -1 -1 -1 -1 -1 -1 -1 -1 -1 -1 -2 -2 -2 -2
-1 -1 -1 -1 -1 -1 -1 -1 -0 -0 -0 -0 -0 -0 -0 -0 -0 -0 -0 -1 -1 -1 -1 -1 -1 -1 -2 -2 -2 -2 -2 -2 -2 -2 -2 -2 -2 -3
-2 -2 -2 -2 -2 -2 -1 -1 -1 -1 -1 -1 -1 -1 -1 -1 -1 -1 -1 -1 -1 -1 -1 -2 -2 -2 -2 -2 -2 -2 -3 -3 -3 -3 -3 -3 -3 -3
-3 -3 -3 -3 -2 -2 -2 -2 -2 -2 -2 -2 -2 -2 -2 -2 -2 -2 -2 -2 -2 -2 -2 -2 -3 -3 -3 -3 -3 -3 -3 -3 -3 -4 -4 -4 -3 -3
-4 -3 -3 -3 -3 -3 -3 -3 -3 -2 -2 -2 -2 -2 -2 -2 -3 -3 -3 -3 -3 -3 -3 -3 -3 -4 -4 -4 -4 -4 -4 -4 -4 -4 -4 -5 -4 -4
-4 -4 -4 -4 -4 -4 -4 -3 -3 -3 -3 -3 -3 -3 -3 -3 -3 -3 -3 -3 -4 -4 -4 -4 -4 -4 -4 -5 -5 -4 -5 -5 -5 -5 -5 -5 -5 -5
-5 -5 -5 -4 -5 -4 -4 -4 -4 -4 -4 -4 -4 -3 -3 -4 -4 -4 -4 -4 -4 -4 -5 -5 -5 -5 -5 -6 -5 -5 -5 -5 -6 -6 -6 -6 -6 -5
-6 -5 -5 -5 -5 -5 -5 -5 -5 -4 -4 -4 -4 -4 -4 -4 -4 -4 -5 -5 -5 -5 -5 -5 -5 -6 -6 -6 -6 -6 -5 -5 -6 -6 -6 -6 -7 -7
-6 -6 -6 -6 -6 -6 -5 -5 -5 -5 -5 -5 -5 -5 -5 -5 -5 -5 -5 -5 -5 -5 -6 -6 -6 -6 -6 -6 -6 -6 -6 -6 -6 -6 -6 -6 -7 -7
Wind_Speed
6 6 5 4 4 4 4 4 5 4 4 4 2 1 3 3 4 4 4 4 4 4 4 3 3 2 2 2 2 2 2 2 3 3 3 4 5 6
5 6 5 4 4 4 4 4 4 4 4 3 3 2 2 3 3 4 4 3 3 4 4 4 4 3 3 3 3 2 2 2 3 3 3 4 5 6
5 6 6 5 5 4 4 4 4 3 3 2 1 1 2 2 2 2 3 3 3 4 4 4 4 4 4 3 3 3 3 3 3 3 4 4 5 6
6 6 6 5 5 5 5 5 5 4 4 3 2 2 2 2 2 2 1 2 3 4 4 3 3 4 4 4 4 3 3 3 3 3 4 5 5 6
5 6 6 5 5 4 5 5 4 4 3 3 3 2 1 1 1 0 0 0 1 2 3 3 3 3 4 5 4 4 3 3 3 4 4 5 6 7
4 5 6 6 6 6 5 5 5 4 3 3 2 2 1 1 2 1 1 0 1 1 2 3 3 3 4 5 5 4 4 4 4 4 5 5 6 7
3 4 5 6 7 6 5 5 6 5 4 3 3 2 2 2 2 2 2 1 1 1 1 1 2 2 3 5 5 5 5 5 4 5 6 6 7 8
4 4 4 5 5 6 6 6 7 6 6 5 3 4 4 3 3 2 2 1 2 1 1 2 2 2 3 5 6 6 6 6 6 6 7 7 8 8
4 4 4 4 5 4 4 5 6 7 7 6 5 5 5 5 5 3 3 3 3 2 1 2 1 2 4 5 5 6 6 6 6 7 7 8 8 9
4 5 5 5 5 5 4 4 3 4 5 4 5 5 5 5 6 5 4 2 0 0 2 2 2 2 2 4 5 6 6 6 7 7 7 8 9 9
4 4 4 5 5 6 5 5 4 3 2 3 4 4 5 6 6 4 3 2 2 2 1 2 1 1 2 2 4 5 5 5 6 7 8 8 9 9
3 4 5 5 6 7 6 6 5 4 3 2 2 2 3 5 7 6 5 4 2 2 2 2 1 0 2 2 1 2 3 5 6 7 7 8 9 7
3 3 4 6 7 7 6 5 5 4 4 4 3 2 2 2 2 3 3 4 3 3 3 2 1 1 1 2 2 2 3 3 4 5 7 9 9 7
5 4 4 6 6 6 4 4 5 4 3 3 3 3 3 2 2 2 2 2 2 3 5 4 2 3 2 2 3 2 2 4 4 4 6 8 9 9
4 5 5 5 4 4 4 5 5 4 4 4 4 3 3 3 3 2 2 2 2 1 4 4 3 2 3 3 3 2 2 3 4 3 4 5 6 6
3 4 5 4 3 3 3 3 3 4 4 4 4 3 3 3 3 3 2 1 1 1 1 1 3 3 3 4 4 4 3 3 2 3 5 6 7 8
2 2 2 2 2 2 2 2 3 3 3 3 4 3 3 3 2 2 2 2 1 2 1 1 1 2 4 3 3 5 4 4 4 4 4 5 6 7
3 3 3 3 3 3 3 2 2 3 3 3 4 4 4 4 3 2 2 2 2 2 2 1 0 1 1 2 5 4 4 4 4 4 3 5 6 6
2 3 3 3 3 3 3 3 2 2 3 3 4 4 4 3 3 3 3 2 2 2 2 2 2 1 2 4 3 4 3 3 3 4 4 5 6 7
2 2 2 2 2 3 3 2 2 2 3 3 3 4 4 4 3 4 4 3 3 2 2 2 3 3 4 4 4 3 6 4 4 5 5 5 6 10
1 1 2 2 2 2 2 2 3 3 3 3 3 3 4 4 4 4 4 4 3 3 4 4 4 3 1 1 2 4 4 6 7 5 5 5 6 5
1 1 1 1 1 2 2 2 2 2 3 3 3 3 4 4 4 5 4 4 4 4 3 3 2 1 1 3 5 5 5 5 7 9 10 9 5 4
1 1 1 1 1 1 2 2 2 2 3 3 3 3 3 3 3 4 4 4 3 3 2 2 2 2 2 3 4 5 5 6 5 5 6 9 12 15
Wind_Direction
203 200 201 198 191 185 174 171 168 195 226 225 216 216 204 197 206 207 223 233 231 224 223 223 222 224 223 226 232 249 266 292 308 305 314 318 319 322
202 198 203 202 193 189 188 187 181 181 208 212 213 213 201 201 204 199 217 220 214 218 218 214 213 219 225 228 236 244 256 278 286 288 295 303 311 316
202 202 209 197 195 193 187 185 188 176 199 219 204 217 196 193 189 196 206 205 213 216 216 220 218 216 218 226 233 236 248 261 275 281 290 298 304 311
210 203 209 202 200 197 192 193 195 186 184 205 207 198 203 195 184 188 213 217 214 217 220 225 220 218 220 222 228 235 244 252 267 281 291 297 301 306
216 206 204 198 206 203 196 196 195 190 183 186 198 194 197 179 156 187 215 256 243 232 228 225 227 228 226 224 226 232 234 246 264 280 290 295 302 306
225 213 203 201 205 201 200 199 189 183 175 173 184 184 185 168 151 184 237 235 275 272 240 234 225 228 233 227 228 231 235 245 256 275 286 292 297 301
226 221 212 206 206 204 202 195 186 185 177 180 184 185 187 173 194 189 209 237 267 257 251 260 234 236 244 237 233 237 240 244 256 273 281 287 292 296
222 223 215 207 203 205 206 198 188 185 187 188 195 200 206 198 185 184 177 194 255 226 196 254 225 232 243 240 236 239 240 246 260 272 279 284 288 292
221 219 218 213 200 199 203 203 204 201 194 191 195 201 197 194 182 187 194 207 229 210 189 244 225 239 245 243 243 244 245 252 264 272 278 282 287 291
232 223 213 210 208 192 186 195 209 212 208 197 201 203 199 191 190 190 191 180 86 230 183 233 242 245 262 256 247 245 246 257 267 273 279 283 287 290
243 230 211 210 209 191 184 191 205 214 212 199 205 204 196 186 171 145 146 163 240 240 200 202 237 275 276 265 250 244 242 257 270 275 280 285 289 290
247 232 219 217 211 199 193 191 203 204 181 178 177 169 169 176 175 173 174 182 201 227 202 179 202 194 288 273 264 253 258 268 272 275 285 289 290 290
236 237 229 223 217 213 206 205 208 193 180 180 178 163 144 152 164 170 178 183 195 221 190 168 188 190 219 271 278 255 251 265 271 279 285 288 287 284
230 232 230 224 219 214 209 201 188 176 173 172 177 186 187 188 184 174 174 177 194 208 195 183 188 196 212 260 268 270 265 263 264 278 286 290 288 283
233 232 227 215 206 204 198 191 182 179 180 184 193 203 198 187 164 141 112 95 67 103 187 202 197 201 210 239 254 259 278 272 258 268 282 286 285 284
232 217 210 205 200 196 191 194 196 194 193 195 191 183 166 164 168 163 169 159 122 353 357 219 213 203 227 242 245 257 250 250 256 268 279 282 280 271
211 203 195 189 192 193 191 187 189 186 193 183 177 175 177 176 178 169 169 163 192 229 262 313 322 274 244 230 246 248 252 260 257 265 277 284 280 273
211 200 198 200 206 205 201 199 193 193 190 183 182 182 184 183 180 177 178 187 207 224 229 234 260 346 337 287 233 242 250 258 267 272 271 274 281 278
208 204 204 206 209 205 205 206 208 199 187 183 187 184 179 180 180 185 189 199 212 217 223 212 198 182 262 279 274 228 233 263 273 274 264 259 270 281
206 208 211 213 205 203 208 211 204 194 188 187 191 188 184 184 187 195 201 206 212 218 229 224 213 207 220 243 263 270 253 252 259 267 273 278 278 283
229 228 221 211 210 209 213 213 211 207 198 195 197 197 192 188 195 200 203 207 212 216 226 236 237 236 230 220 271 275 268 261 258 261 270 286 288 286
262 250 253 230 215 213 214 215 215 213 206 207 203 200 199 197 199 199 200 203 213 219 232 241 228 220 226 239 257 269 282 292 290 278 264 255 255 259
298 287 277 276 249 236 223 212 217 226 216 209 208 203 199 202 203 201 203 207 211 212 217 233 238 241 248 244 256 270 277 286 291 295 286 281 273 271
Height
1525 1527 1529 1531 1533 1535 1537 1539 1541 1541 1541 1543 1544 1545 1547 1548 1549 1550 1550 1551 1552 1552 1553 1553 1553 1553 1554 1554 1554 1554 1554 1553 1553 1552 1552 1551 1550 1549
1519 1522 1524 1526 1528 1530 1532 1534 1536 1537 1538 1539 1540 1542 1543 1544 1545 1546 1547 1547 1548 1548 1549 1549 1549 1550 1550 1550 1550 1550 1550 1550 1549 1549 1548 1548 1547 1546
1514 1516 1518 1521 1523 1525 1527 1529 1531 1532 1533 1534 1536 1538 1539 1540 1541 1542 1543 1543 1544 1544 1545 1545 1546 1546 1546 1547 1547 1546 1546 1546 1545 1545 1544 1544 1543 1542
1508 1511 1513 1515 1517 1519 1521 1523 1525 1527 1529 1529 1531 1533 1534 1536 1537 1538 1538 1539 1539 1540 1540 1541 1541 1542 1542 1542 1542 1542 1542 1542 1541 1541 1540 1539 1539 1538
1503 1505 1507 1510 1512 1514 1516 1518 1520 1522 1524 1525 1526 1527 1529 1531 1532 1533 1533 1534 1535 1535 1536 1536 1537 1537 1538 1538 1538 1538 1538 1537 1537 1536 1536 1535 1534 1533
1497 1499 1502 1504 1506 1509 1511 1513 1515 1516 1518 1519 1521 1522 1524 1525 1526 1527 1528 1529 1530 1531 1531 1532 1532 1532 1533 1533 1533 1533 1533 1532 1532 1532 1531 1530 1529 1529
1492 1494 1496 1498 1501 1503 1505 1507 1509 1511 1512 1514 1515 1517 1518 1519 1521 1522 1523 1524 1525 1526 1526 1527 1527 1527 1528 1528 1528 1528 1528 1528 1527 1527 1526 1525 1525 1524
1486 1488 1490 1493 1495 1497 1499 1501 1503 1505 1506 1508 1509 1511 1512 1514 1516 1517 1518 1519 1519 1521 1521 1522 1522 1523 1523 1523 1523 1523 1523 1523 1523 1522 1521 1520 1519 1518
1480 1482 1484 1487 1489 1491 1494 1496 1497 1499 1501 1503 1504 1506 1507 1509 1510 1512 1513 1514 1514 1516 1517 1516 1517 1517 1518 1518 1518 1519 1519 1518 1518 1517 1516 1515 1514 1513
1475 1477 1479 1481 1483 1485 1488 1490 1492 1493 1495 1497 1499 1501 1503 1504 1506 1507 1508 1509 1510 1511 1512 1512 1512 1512 1513 1513 1513 1513 1513 1513 1512 1512 1511 1510 1509 1508
1469 1471 1473 1475 1477 1480 1482 1484 1486 1488 1490 1492 1494 1496 1498 1499 1501 1502 1503 1504 1504 1505 1507 1507 1506 1507 1507 1507 1508 1508 1508 1508 1507 1506 1505 1504 1503 1502
1464 1466 1468 1470 1472 1474 1476 1478 1480 1482 1484 1487 1489 1490 1492 1494 1495 1497 1498 1499 1499 1500 1501 1502 1502 1502 1502 1501 1502 1503 1503 1502 1502 1501 1500 1499 1498 1496
1459 1461 1463 1465 1467 1469 1471 1472 1474 1476 1478 1481 1483 1485 1487 1488 1490 1491 1493 1494 1495 1495 1496 1497 1496 1497 1497 1496 1496 1497 1497 1496 1496 1495 1494 1493 1492 1490
1454 1456 1457 1459 1461 1463 1465 1467 1469 1471 1473 1475 1477 1478 1480 1482 1484 1486 1488 1489 1490 1491 1491 1492 1491 1491 1491 1490 1490 1490 1491 1490 1490 1489 1488 1487 1486 1485
1449 1450 1452 1454 1456 1457 1459 1461 1463 1465 1467 1469 1471 1473 1475 1477 1479 1481 1482 1484 1484 1485 1486 1486 1486 1486 1486 1485 1484 1484 1484 1483 1483 1483 1482 1481 1479 1478
1444 1445 1447 1449 1451 1452 1454 1456 1458 1460 1461 1463 1465 1467 1470 1472 1473 1475 1476 1477 1478 1479 1480 1481 1481 1481 1480 1480 1479 1478 1478 1478 1477 1477 1475 1474 1473 1472
1438 1440 1441 1443 1445 1447 1449 1451 1453 1454 1456 1458 1460 1462 1464 1466 1468 1470 1471 1472 1472 1473 1474 1475 1476 1475 1475 1475 1474 1473 1473 1472 1472 1470 1469 1467 1466 1466
1434 1434 1436 1438 1440 1442 1444 1446 1448 1449 1451 1453 1455 1457 1459 1460 1462 1464 1465 1466 1467 1467 1468 1469 1469 1469 1470 1469 1470 1468 1468 1467 1466 1465 1463 1460 1459 1459
1429 1430 1431 1433 1435 1437 1439 1441 1443 1445 1447 1448 1450 1452 1454 1456 1457 1459 1460 1461 1462 1462 1463 1464 1464 1464 1463 1463 1463 1464 1463 1461 1460 1459 1457 1456 1453 1452
1425 1426 1427 1429 1431 1433 1435 1437 1439 1440 1442 1444 1446 1447 1449 1450 1452 1454 1455 1455 1456 1457 1457 1458 1459 1459 1459 1459 1457 1457 1458 1456 1455 1453 1451 1450 1448 1446
1421 1422 1424 1425 1427 1429 1431 1433 1434 1436 1437 1439 1441 1442 1444 1445 1447 1448 1450 1450 1451 1451 1452 1453 1454 1455 1454 1454 1453 1451 1452 1451 1450 1448 1446 1444 1441 1439
1417 1419 1420 1422 1424 1425 1427 1429 1430 1431 1433 1434 1436 1438 1439 1441 1442 1443 1444 1445 1446 1446 1447 1448 1449 1449 1449 1449 1447 1446 1445 1445 1444 1443 1442 1440 1437 1433
1414 1415 1417 1418 1420 1421 1423 1424 1426 1427 1428 1429 1431 1433 1434 1436 1437 1438 1439 1440 1441 1441 1442 1442 1443 1443 1443 1443 1442 1441 1440 1439 1437 1436 1436 1435 1433 1431